• In Hungary
  • List of Countries
  • For 7 days
  • Water Temperature
  • Satellite Maps
  • Weather Map
  • News
  • Weather Widgets
  • user-avatar
    Login

    Hourly Weather Olsztynek

    Today, 25 May, Friday

    Time Temperature Precipitation Wind Pressure Humidity
    00:00 +12°C° 0 mm 2 mps 752 mmHg 82%
    01:00 +10°C° 0 mm 2 mps 752 mmHg 81%
    02:00 +10°C° 0 mm 2 mps 752 mmHg 84%
    03:00 +10°C° 0 mm 2 mps 752 mmHg 86%
    04:00 +10°C° 0 mm 2 mps 752 mmHg 88%
    05:00 +13°C° 0 mm 2 mps 752 mmHg 84%
    06:00 +14°C° 0 mm 3 mps 752 mmHg 79%
    07:00 +17°C° 0 mm 3 mps 752 mmHg 74%
    08:00 +18°C° 0.2 mm 3 mps 752 mmHg 71%
    09:00 +20°C° 0.2 mm 4 mps 752 mmHg 67%
    10:00 +21°C° 0.2 mm 4 mps 752 mmHg 64%
    11:00 +21°C° 0.6 mm 4 mps 752 mmHg 63%
    12:00 +21°C° 0.6 mm 4 mps 752 mmHg 63%
    13:00 +22°C° 0.6 mm 4 mps 752 mmHg 62%
    14:00 +22°C° 0.6 mm 4 mps 751 mmHg 64%
    15:00 +21°C° 0.6 mm 4 mps 751 mmHg 66%
    16:00 +21°C° 0.6 mm 4 mps 751 mmHg 69%
    17:00 +20°C° 0.4 mm 3 mps 751 mmHg 74%
    18:00 +19°C° 0.4 mm 3 mps 751 mmHg 80%
    19:00 +18°C° 0.4 mm 3 mps 751 mmHg 86%
    20:00 +17°C° 0 mm 3 mps 751 mmHg 88%
    21:00 +16°C° 0 mm 3 mps 752 mmHg 90%
    22:00 +14°C° 0 mm 3 mps 752 mmHg 92%
    23:00 +14°C° 0 mm 3 mps 752 mmHg 92%

    Tomorrow, 26 May, Saturday

    Time Temperature Precipitation Wind Pressure Humidity
    00:00 +15°C° 0 mm 2 mps 752 mmHg 93%
    01:00 +14°C° 0 mm 2 mps 752 mmHg 93%
    02:00 +14°C° 0.1 mm 2 mps 752 mmHg 94%
    03:00 +14°C° 0.1 mm 2 mps 752 mmHg 94%
    04:00 +14°C° 0.1 mm 2 mps 752 mmHg 95%
    05:00 +14°C° 0.4 mm 3 mps 752 mmHg 93%
    06:00 +17°C° 0.4 mm 3 mps 753 mmHg 91%
    07:00 +18°C° 0.4 mm 3 mps 753 mmHg 89%
    08:00 +19°C° 1.5 mm 4 mps 753 mmHg 85%
    09:00 +21°C° 1.5 mm 4 mps 753 mmHg 81%
    10:00 +22°C° 1.5 mm 4 mps 753 mmHg 76%
    11:00 +22°C° 2.2 mm 4 mps 753 mmHg 77%
    12:00 +22°C° 2.2 mm 5 mps 753 mmHg 78%
    13:00 +21°C° 2.2 mm 5 mps 752 mmHg 79%
    14:00 +21°C° 1.8 mm 4 mps 752 mmHg 80%
    15:00 +21°C° 1.8 mm 4 mps 752 mmHg 81%
    16:00 +21°C° 1.8 mm 4 mps 752 mmHg 82%
    17:00 +20°C° 2 mm 4 mps 752 mmHg 84%
    18:00 +20°C° 2 mm 4 mps 752 mmHg 85%
    19:00 +19°C° 2 mm 4 mps 752 mmHg 86%
    20:00 +18°C° 1.8 mm 4 mps 752 mmHg 88%
    21:00 +18°C° 1.8 mm 4 mps 752 mmHg 90%
    22:00 +17°C° 1.8 mm 4 mps 752 mmHg 91%
    23:00 +17°C° 0.8 mm 4 mps 752 mmHg 92%

    Day after tomorrow, 27 May, Sunday

    Time Temperature Precipitation Wind Pressure Humidity
    00:00 +15°C° 0.8 mm 4 mps 752 mmHg 92%
    01:00 +15°C° 0.8 mm 4 mps 752 mmHg 92%
    02:00 +14°C° 0.2 mm 4 mps 752 mmHg 93%
    03:00 +14°C° 0.2 mm 4 mps 752 mmHg 93%
    04:00 +14°C° 0.2 mm 4 mps 752 mmHg 93%
    05:00 +14°C° 0.2 mm 4 mps 752 mmHg 92%
    06:00 +14°C° 0.2 mm 4 mps 753 mmHg 91%
    07:00 +15°C° 0.2 mm 4 mps 753 mmHg 90%
    08:00 +17°C° 0 mm 4 mps 753 mmHg 85%
    09:00 +19°C° 0 mm 4 mps 753 mmHg 79%
    10:00 +20°C° 0 mm 5 mps 753 mmHg 74%
    11:00 +21°C° 0 mm 4 mps 753 mmHg 70%
    12:00 +22°C° 0 mm 4 mps 753 mmHg 65%
    13:00 +23°C° 0 mm 4 mps 753 mmHg 61%
    14:00 +23°C° 0 mm 4 mps 753 mmHg 62%
    15:00 +23°C° 0 mm 4 mps 753 mmHg 62%
    16:00 +23°C° 0 mm 4 mps 753 mmHg 63%
    17:00 +22°C° 0 mm 4 mps 753 mmHg 68%
    18:00 +21°C° 0 mm 3 mps 753 mmHg 74%
    19:00 +19°C° 0 mm 3 mps 753 mmHg 80%
    20:00 +18°C° 0 mm 3 mps 753 mmHg 82%
    21:00 +17°C° 0 mm 3 mps 754 mmHg 85%
    22:00 +16°C° 0 mm 3 mps 754 mmHg 88%
    23:00 +14°C° 0 mm 3 mps 754 mmHg 89%

    28 May, Monday

    Time Temperature Precipitation Wind Pressure Humidity
    00:00 +13°C° 0 mm 3 mps 754 mmHg 90%
    01:00 +13°C° 0 mm 3 mps 754 mmHg 91%
    02:00 +13°C° 0 mm 3 mps 754 mmHg 91%
    03:00 +12°C° 0 mm 3 mps 755 mmHg 91%
    04:00 +12°C° 0 mm 3 mps 755 mmHg 91%
    05:00 +13°C° 0 mm 3 mps 755 mmHg 86%
    06:00 +16°C° 0 mm 3 mps 755 mmHg 81%
    07:00 +18°C° 0 mm 4 mps 755 mmHg 76%
    08:00 +19°C° 0 mm 4 mps 755 mmHg 71%
    09:00 +21°C° 0 mm 4 mps 755 mmHg 66%
    10:00 +22°C° 0 mm 4 mps 756 mmHg 60%
    11:00 +23°C° 0 mm 4 mps 755 mmHg 59%
    12:00 +23°C° 0 mm 4 mps 755 mmHg 57%
    13:00 +25°C° 0 mm 4 mps 755 mmHg 56%
    14:00 +25°C° 0 mm 4 mps 755 mmHg 57%
    15:00 +25°C° 0 mm 5 mps 755 mmHg 58%
    16:00 +23°C° 0 mm 5 mps 754 mmHg 60%
    17:00 +22°C° 0 mm 4 mps 754 mmHg 65%
    18:00 +21°C° 0 mm 4 mps 754 mmHg 70%
    19:00 +19°C° 0 mm 3 mps 754 mmHg 75%
    20:00 +18°C° 0 mm 3 mps 754 mmHg 77%
    21:00 +17°C° 0 mm 3 mps 755 mmHg 79%
    22:00 +16°C° 0 mm 3 mps 755 mmHg 81%
    23:00 +14°C° 0 mm 3 mps 755 mmHg 83%

    29 May, Tuesday

    Time Temperature Precipitation Wind Pressure Humidity
    00:00 +14°C° 0 mm 3 mps 755 mmHg 84%
    01:00 +13°C° 0 mm 3 mps 755 mmHg 86%
    02:00 +13°C° 0 mm 3 mps 755 mmHg 86%
    03:00 +13°C° 0 mm 3 mps 755 mmHg 86%
    04:00 +12°C° 0 mm 4 mps 755 mmHg 87%
    05:00 +14°C° 0 mm 4 mps 755 mmHg 81%
    06:00 +16°C° 0 mm 5 mps 755 mmHg 75%
    07:00 +17°C° 0 mm 5 mps 755 mmHg 68%
    08:00 +20°C° 0 mm 6 mps 755 mmHg 64%
    09:00 +21°C° 0 mm 6 mps 754 mmHg 60%
    10:00 +22°C° 0 mm 7 mps 754 mmHg 56%
    11:00 +23°C° 0 mm 7 mps 754 mmHg 55%
    12:00 +23°C° 0 mm 7 mps 754 mmHg 54%
    13:00 +24°C° 0 mm 7 mps 753 mmHg 53%
    14:00 +24°C° 0 mm 6 mps 753 mmHg 55%
    15:00 +24°C° 0 mm 6 mps 752 mmHg 57%
    16:00 +25°C° 0 mm 5 mps 752 mmHg 58%
    17:00 +23°C° 0 mm 5 mps 752 mmHg 63%
    18:00 +21°C° 0 mm 4 mps 751 mmHg 68%
    19:00 +20°C° 0 mm 4 mps 751 mmHg 73%
    20:00 +19°C° 0 mm 4 mps 751 mmHg 76%
    21:00 +18°C° 0 mm 3 mps 751 mmHg 78%
    22:00 +16°C° 0 mm 3 mps 751 mmHg 81%
    23:00 +16°C° 0 mm 3 mps 751 mmHg 83%

    30 May, Wednesday

    Time Temperature Precipitation Wind Pressure Humidity
    00:00 +16°C° 0 mm 3 mps 751 mmHg 84%
    01:00 +14°C° 0 mm 4 mps 751 mmHg 86%
    02:00 +14°C° 0 mm 4 mps 751 mmHg 86%
    03:00 +14°C° 0 mm 4 mps 750 mmHg 87%
    04:00 +14°C° 0 mm 4 mps 750 mmHg 88%
    05:00 +15°C° 0 mm 4 mps 750 mmHg 84%
    06:00 +17°C° 0 mm 5 mps 750 mmHg 79%
    07:00 +19°C° 0 mm 5 mps 750 mmHg 75%
    08:00 +21°C° 0 mm 5 mps 750 mmHg 71%
    09:00 +22°C° 0 mm 5 mps 750 mmHg 66%
    10:00 +25°C° 0 mm 5 mps 750 mmHg 62%
    11:00 +25°C° 0 mm 5 mps 749 mmHg 60%
    12:00 +26°C° 0 mm 4 mps 749 mmHg 58%
    13:00 +27°C° 0 mm 4 mps 749 mmHg 56%
    14:00 +27°C° 0 mm 4 mps 749 mmHg 57%
    15:00 +27°C° 0 mm 4 mps 748 mmHg 57%
    16:00 +28°C° 0 mm 3 mps 748 mmHg 58%
    17:00 +26°C° 0 mm 3 mps 748 mmHg 63%
    18:00 +25°C° 0 mm 3 mps 748 mmHg 69%
    19:00 +24°C° 0 mm 2 mps 748 mmHg 75%
    20:00 +22°C° 0 mm 3 mps 748 mmHg 77%
    21:00 +21°C° 0 mm 3 mps 748 mmHg 80%
    22:00 +19°C° 0 mm 3 mps 748 mmHg 82%
    23:00 +19°C° 0 mm 3 mps 748 mmHg 85%
    Show more